GLOBALSTAR M097

Last updated on Mon Sep 21 2026 00:03:12 GMT+0000 (Coordinated Universal Time)

1 39072U 13005A 26263.42108336 -.00000091 00000+0 73823-4 0 9993 2 39072 52.0058 313.4349 0000460 122.0453 238.0458 12.62271305628934
UTC large
Height (km)
Speed (km/s)
/
Latitude / Longitude
Inclination (degrees)
Orbital Period (minutes)
Azimuth
Elevation
Range (km)
Doppler Factor

Next 0 passes for location: London (51.5072 / 0.1276)

No passes found over London.
GLOBALSTAR M097